Change the Weather History Date:

Tuesday, August 19, 2014

  Actual Average (KBPI) Record (KBPI)
Temperature  
Mean Temperature 55 °F 59 °F  
Max Temperature 69 °F 79 °F 90 °F (2013)
Min Temperature 41 °F 40 °F 24 °F (1978)
Degree Days  
Heating Degree Days 10 6  
Month to date heating degree days 83  
Since 1 June heating degree days 505  
Since 1 July heating degree days 200  
Cooling Degree Days 0 0  
Month to date cooling degree days 12  
Year to date cooling degree days 36  
Since 1 June cooling degree days 36  
Growing Degree Days 5 (Base 50)    
Moisture  
Dew Point 40 °F    
Average Humidity 61    
Maximum Humidity 87    
Minimum Humidity 28    
Precipitation  
Precipitation 0.00 in 0.02 in 0.07 in (1976)
Month to date precipitation 0.44  
Year to date precipitation 4.41  
Sea Level Pressure  
Sea Level Pressure 30.10 in    
Wind  
Wind Speed 5 mph (West)    
Max Wind Speed 16 mph    
Max Gust Speed 22 mph    
Visibility 10 miles    
Events Rain , Thunderstorm    
T = Trace of Precipitation, MM = Missing Value Source: NWS Daily Summary

Daily Weather History Graph

Daily Weather History Graph

Search for Another Location

Airport or City:

Trip Planner

Search our weather history database for the weather conditions in past years. The results will help you decide how hot, cold, wet, or windy it might be!

Date:

Astronomy

Aug. 19, 2014 Rise Set
Actual Time 6:29 AM MDT 8:14 PM MDT
Civil Twilight 5:59 AM MDT 8:44 PM MDT
Nautical Twilight 5:23 AM MDT 9:21 PM MDT
Astronomical Twilight 4:43 AM MDT 10:00 PM MDT
Moon 1:22 AM MDT (8/19) 4:16 PM MDT (8/19)
Length of Visible Light 14h 45m
Length of Day
13h 44m
Waning Crescent, 28% of the Moon is Illuminated
Aug 19
Waning Crescent
Aug 25
New
Sep 2
First Quarter
Sep 8
Full
Sep 15
Last Quarter

Hourly Weather History & Observations

Time (MDT) Temp. Windchill Dew Point Humidity Pressure Visibility Wind Dir Wind Speed Gust Speed Precip Events Conditions
12:15 AM 50.0 °F - 35.6 °F 58% 30.15 in 10.0 mi Calm Calm - N/A   Clear
12:35 AM 46.4 °F - 37.4 °F 71% 30.14 in 10.0 mi Calm Calm - N/A   Clear
12:55 AM 46.4 °F 44.3 °F 37.4 °F 71% 30.13 in 10.0 mi West 4.6 mph - N/A   Clear
1:15 AM 44.6 °F 41.4 °F 37.4 °F 76% 30.13 in 10.0 mi West 5.8 mph - N/A   Clear
1:35 AM 44.6 °F 40.7 °F 37.4 °F 76% 30.13 in 10.0 mi WNW 6.9 mph - N/A   Clear
1:55 AM 44.6 °F 41.4 °F 37.4 °F 76% 30.13 in 10.0 mi NW 5.8 mph - N/A   Clear
2:15 AM 44.6 °F 42.2 °F 37.4 °F 76% 30.13 in 10.0 mi West 4.6 mph - N/A   Clear
2:35 AM 42.8 °F 41.1 °F 37.4 °F 81% 30.14 in 10.0 mi West 3.5 mph - N/A   Clear
2:55 AM 42.8 °F 39.3 °F 35.6 °F 76% 30.14 in 10.0 mi West 5.8 mph - N/A   Clear
3:15 AM 42.8 °F 37.5 °F 37.4 °F 81% 30.14 in 10.0 mi West 9.2 mph - N/A   Clear
3:35 AM 42.8 °F 38.6 °F 37.4 °F 81% 30.14 in 10.0 mi WNW 6.9 mph - N/A   Clear
3:55 AM 42.8 °F 41.1 °F 37.4 °F 81% 30.14 in 10.0 mi WNW 3.5 mph - N/A   Clear
4:15 AM 44.6 °F 40.7 °F 37.4 °F 76% 30.13 in 10.0 mi NW 6.9 mph - N/A   Clear
4:35 AM 44.6 °F 42.2 °F 35.6 °F 71% 30.12 in 10.0 mi WNW 4.6 mph - N/A   Clear
4:55 AM 41.0 °F 38.0 °F 37.4 °F 87% 30.11 in 10.0 mi WNW 4.6 mph - N/A   Clear
5:15 AM 41.0 °F 38.0 °F 37.4 °F 87% 30.11 in 10.0 mi WNW 4.6 mph - N/A   Clear
5:35 AM 42.8 °F 39.3 °F 37.4 °F 81% 30.11 in 10.0 mi NW 5.8 mph - N/A   Clear
5:55 AM 42.8 °F 39.3 °F 35.6 °F 76% 30.11 in 10.0 mi NW 5.8 mph - N/A   Clear
6:15 AM 41.0 °F - 37.4 °F 87% 30.12 in 10.0 mi North - - N/A   Clear
6:35 AM 41.0 °F - 35.6 °F 81% 30.13 in 10.0 mi North - - N/A   Clear
6:55 AM 41.0 °F - 35.6 °F 81% 30.13 in 10.0 mi North - - N/A   Clear
7:15 AM 44.6 °F - 37.4 °F 76% 30.11 in 10.0 mi Calm Calm - N/A   Clear
7:35 AM 46.4 °F - 37.4 °F 71% 30.12 in 10.0 mi Calm Calm - N/A   Clear
7:55 AM 46.4 °F 44.3 °F 37.4 °F 71% 30.12 in 10.0 mi West 4.6 mph - N/A   Clear
8:15 AM 46.4 °F 43.5 °F 41.0 °F 81% 30.12 in 10.0 mi West 5.8 mph - N/A   Clear
8:35 AM 50.0 °F - 41.0 °F 71% 30.12 in 10.0 mi West 5.8 mph - N/A   Clear
8:55 AM 51.8 °F - 41.0 °F 67% 30.13 in 10.0 mi West 4.6 mph - N/A   Clear
9:15 AM 53.6 °F - 41.0 °F 62% 30.12 in 10.0 mi WNW 4.6 mph - N/A   Clear
9:35 AM 53.6 °F - 42.8 °F 67% 30.11 in 10.0 mi West 3.5 mph - N/A   Clear
9:55 AM 55.4 °F - 42.8 °F 63% 30.11 in 10.0 mi West 3.5 mph - N/A   Clear
10:35 AM 59.0 °F - 41.0 °F 51% 30.11 in 10.0 mi West 5.8 mph - N/A   Clear
11:15 AM 64.4 °F - 32.0 °F 30% 30.12 in 10.0 mi Calm Calm - N/A   Clear
11:35 AM 68.0 °F - 33.8 °F 28% 30.11 in 10.0 mi Calm Calm - N/A   Clear
11:55 AM 69.8 °F - 35.6 °F 28% 30.11 in 10.0 mi Calm Calm - N/A   Clear
12:15 PM 69.8 °F - 35.6 °F 28% 30.11 in 10.0 mi West 6.9 mph - N/A   Clear
12:35 PM 69.8 °F - 35.6 °F 28% 30.11 in 10.0 mi West 5.8 mph - N/A   Clear
12:55 PM 68.0 °F - 35.6 °F 30% 30.10 in 10.0 mi West 5.8 mph - N/A   Clear
1:15 PM 68.0 °F - 35.6 °F 30% 30.10 in 10.0 mi West 3.5 mph - N/A   Clear
1:35 PM 68.0 °F - 37.4 °F 33% 30.10 in 10.0 mi WSW 5.8 mph - N/A   Scattered Clouds
1:55 PM 68.0 °F - 35.6 °F 30% 30.11 in 10.0 mi SSW 8.1 mph - N/A   Mostly Cloudy
2:15 PM 68.0 °F - 35.6 °F 30% 30.10 in 10.0 mi South 8.1 mph - N/A   Mostly Cloudy
2:35 PM 68.0 °F - 35.6 °F 30% 30.09 in 10.0 mi South 4.6 mph - N/A   Mostly Cloudy
2:55 PM 69.8 °F - 35.6 °F 28% 30.09 in 10.0 mi SSE 4.6 mph - N/A   Scattered Clouds
3:15 PM 68.0 °F - 41.0 °F 37% 30.08 in 10.0 mi South 12.7 mph 19.6 mph N/A   Scattered Clouds
3:35 PM 68.0 °F - 42.8 °F 40% 30.08 in 10.0 mi South 13.8 mph 21.9 mph N/A   Clear
3:55 PM 68.0 °F - 42.8 °F 40% 30.08 in 10.0 mi SE 16.1 mph 19.6 mph N/A   Clear
4:15 PM 62.6 °F - 42.8 °F 48% 30.08 in 10.0 mi SE 15.0 mph 21.9 mph N/A   Mostly Cloudy
4:35 PM 62.6 °F - 42.8 °F 48% 30.08 in 10.0 mi ESE 15.0 mph - N/A   Overcast
4:55 PM 60.8 °F - 42.8 °F 52% 30.09 in 10.0 mi East 13.8 mph - N/A   Overcast
5:15 PM 60.8 °F - 41.0 °F 48% 30.09 in 10.0 mi East 11.5 mph - N/A   Overcast
5:35 PM 60.8 °F - 41.0 °F 48% 30.08 in 10.0 mi East 6.9 mph - N/A Thunderstorm Thunderstorm
5:55 PM 59.0 °F - 42.8 °F 55% 30.07 in 10.0 mi East 5.8 mph - N/A Rain Light Rain
6:15 PM 59.0 °F - 42.8 °F 55% 30.05 in 10.0 mi East 4.6 mph - N/A   Overcast
6:35 PM 59.0 °F - 44.6 °F 59% 30.06 in 10.0 mi Calm Calm - N/A   Overcast
6:55 PM 59.0 °F - 44.6 °F 59% 30.05 in 10.0 mi West 6.9 mph - N/A   Overcast
7:15 PM 59.0 °F - 42.8 °F 55% 30.05 in 10.0 mi West 5.8 mph - N/A   Overcast
7:35 PM 59.0 °F - 42.8 °F 55% 30.06 in 10.0 mi WNW 11.5 mph 17.3 mph N/A   Overcast
8:15 PM 55.4 °F - 44.6 °F 67% 30.06 in 10.0 mi Calm Calm - N/A   Overcast
8:35 PM 53.6 °F - 44.6 °F 72% 30.06 in 10.0 mi WSW 4.6 mph - N/A   Mostly Cloudy
8:55 PM 53.6 °F - 44.6 °F 72% 30.06 in 10.0 mi West 4.6 mph - N/A Rain Rain
9:15 PM 53.6 °F - 44.6 °F 72% 30.06 in 10.0 mi WNW 5.8 mph - N/A Rain Light Rain
9:35 PM 53.6 °F - 46.4 °F 77% 30.06 in 10.0 mi NW 3.5 mph - N/A   Overcast
9:55 PM 53.6 °F - 44.6 °F 72% 30.06 in 10.0 mi WNW 6.9 mph - N/A   Overcast
10:15 PM 53.6 °F - 44.6 °F 72% 30.05 in 10.0 mi NNW 4.6 mph - N/A   Overcast
10:35 PM 51.8 °F - 44.6 °F 76% 30.05 in 10.0 mi West 3.5 mph - N/A   Overcast
10:55 PM 51.8 °F - 44.6 °F 76% 30.04 in 10.0 mi WNW 5.8 mph - N/A   Overcast
11:35 PM 51.8 °F - 44.6 °F 76% 30.04 in 10.0 mi WNW 6.9 mph - N/A   Overcast
11:55 PM 53.6 °F - 44.6 °F 72% 30.05 in 10.0 mi WNW 8.1 mph - N/A   Overcast